New River MCAS, NC

5:22 AM EDT on June 29, 2017 (GMT -0400)
New River Marine Corps Air Station

Weather History for KNCA - March, 2011

Change the Weather History Date:

Tuesday, March 22, 2011

  Actual Average Record
Temperature  
Mean Temperature 72 °F -  
Max Temperature 86 °F 64 °F 86 °F (2011)
Min Temperature 57 °F 42 °F 27 °F (2013)
Cooling Degree Days 6    
Growing Degree Days 22 (Base 50)    
Moisture  
Dew Point 54 °F    
Average Humidity 63    
Maximum Humidity 93    
Minimum Humidity 30    
Precipitation  
Precipitation 0.00 in - - ()
Sea Level Pressure  
Sea Level Pressure 29.94 in    
Wind  
Wind Speed 10 mph (West)    
Max Wind Speed 15 mph    
Max Gust Speed 20 mph    
Visibility 10 miles    
Events      
Averages and records for this station are not official NWS values.
T = Trace of Precipitation, MM = Missing Value Source: NWS Daily Summary

Daily Weather History Graph

Daily Weather History Graph

Search for Another Location

Airport or City:

Trip Planner

Search our weather history database for the weather conditions in past years. The results will help you decide how hot, cold, wet, or windy it might be!

Date:

Astronomy

Mar. 22, 2011 Rise Set
Actual Time 7:11 AM EDT 7:22 PM EDT
Civil Twilight 6:45 AM EDT 7:48 PM EDT
Nautical Twilight 6:16 AM EDT 8:17 PM EDT
Astronomical Twilight 5:46 AM EDT 8:47 PM EDT
Moon 11:14 PM EDT (3/22) 8:44 AM EDT (3/22)
Length of Visible Light 13h 02m
Length of Day
12h 11m
Waning Gibbous, 88% of the Moon is Illuminated
Mar 22
Waning Gibbous
Mar 26
Last Quarter
Apr 3
New
Apr 11
First Quarter
Apr 17
Full

Hourly Weather History & Observations

Time (EDT) Temp. Heat Index Dew Point Humidity Pressure Visibility Wind Dir Wind Speed Gust Speed Precip Events Conditions
12:56 AM 63.0 °F - 55.9 °F 78% 30.06 in 10.0 mi WSW 9.2 mph - N/A   Clear
1:56 AM 63.0 °F - 55.9 °F 78% 30.04 in 10.0 mi WSW 10.4 mph - N/A   Clear
2:56 AM 62.1 °F - 55.9 °F 80% 30.01 in 10.0 mi WSW 9.2 mph - N/A   Clear
3:56 AM 62.1 °F - 55.9 °F 80% 29.99 in 10.0 mi WSW 11.5 mph - N/A   Clear
4:56 AM 61.0 °F - 55.0 °F 81% 29.98 in 10.0 mi WSW 11.5 mph - N/A   Clear
5:56 AM 59.0 °F - 55.0 °F 87% 29.98 in 10.0 mi WSW 9.2 mph - N/A   Clear
6:56 AM 59.0 °F - 55.0 °F 87% 29.99 in 10.0 mi West 12.7 mph - N/A   Clear
7:56 AM 59.0 °F - 55.0 °F 87% 30.00 in 10.0 mi West 11.5 mph - N/A   Scattered Clouds
8:56 AM 64.0 °F - 54.0 °F 70% 30.01 in 10.0 mi West 12.7 mph - N/A   Clear
9:56 AM 69.1 °F - 54.0 °F 58% 30.01 in 10.0 mi WNW 13.8 mph - N/A   Clear
10:56 AM 75.0 °F - 54.0 °F 48% 29.99 in 10.0 mi WNW 11.5 mph 19.6 mph N/A   Clear
11:56 AM 79.0 °F - 54.0 °F 42% 29.96 in 10.0 mi NW 11.5 mph - N/A   Clear
12:56 PM 81.0 °F 80.4 °F 53.1 °F 38% 29.94 in 10.0 mi WNW 11.5 mph 16.1 mph N/A   Clear
1:56 PM 82.9 °F - 52.0 °F 34% 29.91 in 10.0 mi NW 10.4 mph 18.4 mph N/A   Clear
2:56 PM 84.0 °F - 51.1 °F 32% 29.88 in 10.0 mi WNW 10.4 mph - N/A   Clear
3:56 PM 84.9 °F - 50.0 °F 30% 29.86 in 10.0 mi WNW 15.0 mph - N/A   Scattered Clouds
4:56 PM 84.0 °F - 50.0 °F 31% 29.84 in 10.0 mi West 9.2 mph - N/A   Partly Cloudy
5:56 PM 82.0 °F - 51.1 °F 34% 29.84 in 10.0 mi West 8.1 mph - N/A   Scattered Clouds
6:56 PM 77.0 °F - 53.1 °F 43% 29.85 in 10.0 mi WSW 3.5 mph - N/A   Clear
7:56 PM 71.1 °F - 55.0 °F 57% 29.86 in 8.0 mi South 3.5 mph - N/A   Scattered Clouds
8:56 PM 66.0 °F - 59.0 °F 78% 29.88 in 10.0 mi ENE 11.5 mph - N/A   Clear
9:56 PM 63.0 °F - 57.0 °F 81% 29.90 in 10.0 mi NE 8.1 mph - N/A   Clear
10:56 PM 60.1 °F - 57.9 °F 93% 29.90 in 10.0 mi NE 5.8 mph - N/A   Clear
11:56 PM 57.9 °F - 55.9 °F 93% 29.89 in 9.0 mi ENE 3.5 mph - N/A   Clear